Regional Weather Roundup
Issued by NWS Upton, NY

Current Version | Previous Version | Graphics & Text | Print | Product List | Glossary Off
Versions: 1 2 3 4 5 6 7 8 9 10 11 12 13 14 15 16 17 18 19 20 21 22 23 24 25 26 27 28 29 30 31 32 33 34 35 36 37 38 39 40 41 42 43 44 45 46 47 48 49 50

000
ASUS41 KOKX 082308
RWROKX

REGIONAL WEATHER ROUNDUP
NATIONAL WEATHER SERVICE NEW YORK NY
600 PM EST THU DEC 08 2016

NOTE: "FAIR" INDICATES FEW OR NO CLOUDS BELOW 12,000 FEET WITH NO
SIGNIFICANT WEATHER AND/OR OBSTRUCTIONS TO VISIBILITY.

NYZ071-072-176-178-NJZ106-104-090000-
NEW YORK CITY METRO AREA

CITY           SKY/WX    TMP DP  RH WIND       PRES   REMARKS
Central Park     N/A     43  19  39 MISG        N/A
Wall St Helipt CLEAR     43  25  49 W13G18    29.95R
Bronx Bot Gard NOT AVBL
LaGuardia APRT MOCLDY    43  19  38 W16G25    29.93R
Kennedy INTL   CLOUDY    42  19  39 W16       29.94R
Breezy Point     N/A     39 N/A N/A W14G20      N/A  WCI  31
Newark/Liberty PTCLDY    40  19  43 W12       29.94R WCI  33
Teterboro      PTCLDY    40  18  41 W7        29.93R
$$

NYZ177-179-078>081-090000-
LONG ISLAND NEW YORK

CITY           SKY/WX    TMP DP  RH WIND       PRES   REMARKS
Jones Beach      N/A     41 N/A N/A W16G23      N/A
Matinecock PT    N/A     43 N/A N/A W21         N/A
Farmingdale    PTCLDY    40  19  43 W8        29.92R WCI  34
MacArthur/ISP  CLOUDY    38  20  48 W9        29.91R WCI  31
Shirley        CLOUDY    38  22  52 W6        29.91R WCI  33
Westhampton    CLOUDY    36  21  54 W7        29.91R WCI  30
Southampton    NOT AVBL
Bridgehampton  NOT AVBL
East Hampton     N/A     38  23  54 W7        29.87S WCI  33
Montauk          N/A     43  26  51 W15       29.87S
$$

NYZ052-065-067-090000-
HUDSON VALLEY

CITY           SKY/WX    TMP DP  RH WIND       PRES   REMARKS
White Plains   CLEAR     39  18  42 W12       29.89R WCI  32
Newburgh       PTCLDY    37  23  56 W12       29.91R WCI  30
Montgomery     CLEAR     35  20  54 W7        29.89R WCI  29
Poughkeepsie   PTCLDY    35  19  52 W8        29.90R WCI  29
Albany         PTCLDY    32  22  66 W8        29.89R WCI  25
$$

NJZ001-105-106-008-010-013-015-019>022-104-090000-
NEW JERSEY

CITY           SKY/WX    TMP DP  RH WIND       PRES   REMARKS
Newark/Liberty PTCLDY    40  19  43 W12       29.94R WCI  33
Teterboro      PTCLDY    40  18  41 W7        29.93R
Caldwell       CLEAR     39  18  42 W12       29.94R WCI  32
Somerville     CLEAR     38  19  46 W5        29.95R WCI  34
Linden           N/A     39  19  45 W9        29.95R WCI  33
Sussex         PTCLDY    36  20  52 VRB3      29.92R
Andover          N/A     35  18  49 CALM      29.94R
Trenton        CLEAR     38  19  46 W6        29.97R WCI  33
Millville      CLOUDY    37  25  61 W3        30.00R
Atlantic City  PTCLDY    40  24  53 W7        29.99R
Wrightstown    PTCLDY    39  19  44 W9        29.96R WCI  33
Toms River     MOCLDY    39  20  46 W8        29.99R WCI  33
Belmar         CLOUDY    37  19  48 W7        29.97R WCI  32
$$

PAZ047>061-062-071-090000-
EASTERN PENNSYLVANIA

CITY           SKY/WX    TMP DP  RH WIND       PRES   REMARKS
Philadelphia   MOCLDY    42  18  37 W16G22    30.01R
Allentown      CLEAR     36  15  42 W12G26    29.99R WCI  28
Scranton       CLOUDY    35  16  45 W10       29.94R WCI  27
$$

CTZ002-004>006-009-010-012-RIZ004-006-007-MAZ004-011-015-090000-
SOUTHERN NEW ENGLAND
 IN CT

CITY           SKY/WX    TMP DP  RH WIND       PRES   REMARKS
Bradley INTL   PTCLDY    34  23  64 W7        29.86R WCI  28
Hartford       CLOUDY    40  27  59 NW5       29.87R
Danbury        CLEAR     38  17  42 W8G20     29.89R WCI  32
Wtrbury/Oxford PTCLDY    37  18  44 W7        29.88R WCI  32
Bridgeport     PTCLDY    41  21  44 W13       29.90R
Meriden        PTCLDY    40  19  43 CALM      29.88R
New Haven      CLEAR     40  23  50 W7        29.89R
Chester          N/A     37  23  56 W6        29.86R WCI  33
Groton         PTCLDY    42  25  50 W8        29.86R
Wilimantic     CLOUDY    40  28  62 W3        29.86R

 IN RI

CITY           SKY/WX    TMP DP  RH WIND       PRES   REMARKS
Providence     MOCLDY    38  26  62 W6        29.84R WCI  33
Block Island   CLOUDY    42  26  53 W14G24    29.86R
Westerly       CLEAR     40  22  48 W7        29.86R
 IN MA

CITY           SKY/WX    TMP DP  RH WIND       PRES   REMARKS
Boston         PTCLDY    40  28  62 W12       29.82R WCI  33
Worcester      CLEAR     33  26  75 W12       29.80R WCI  24
Westfield      MOCLDY    36  26  67 NW7       29.85R WCI  30
Provincetown   PTCLDY    41  27  57 W17       29.81R
Nantucket      MOCLDY    43  30  60 W14       29.81S
$$

ANZ330-335-338-340-345-350-353-355-090000-
COASTAL MARINE OBSERVATIONS


STATION/POSITION TIME  SKY/WX   TEMP    WIND        PRES    VSBY  WAVE
                                AIR SEA DIR/SP/G                  HT/PER
                 (UTC)          (F)     (DEG/KT/KT) (MB)    (MI)  (FT/S)
NY HARB ENTRANCE 2250            44 52  280/ 23/ 27 1013.3          4/ 4
20 S FIRE ISLAND 2250            45 53  290/ 21/ 25 1012.7          5/ 5
GREAT SOUTH BAY  2230            42 43                N/A
23 SSW MONTAUK P 2250            44 54  270/ 21/ 27 1011.8          5/ 5
15 E BARNEGAT LI 2230               53                N/A           4/ 3
HUDSON CANYON    2150            48 56              1012.5          5/ 5
KINGS POINT      2242            42 47              1013.1
EXECUTION ROCKS  2245            43     260/ 14/ 17   N/A
CENTRAL LI SOUND 2230            44 50  270/ 19/ 25   N/A           4/ 5
EASTERN LI SOUND NOT AVBL
ROBBINS REEF     2248            41     270/ 14/ 18 1013.9
$$


>>>>>>>>>>>>>>>>>>>>>>>>>>>> KEY <<<<<<<<<<<<<<<<<<<<<<<<<<<
>                                                          <
>     SKY/WX - Sky Condition/Present Weather               <
>     TMP    - Temperature in Fahrenheit                   <
>     DP     - Dew Point in Fahrenheit                     <
>     RH     - Relative Humidity in Percent                <
>     WIND   - Direction (from) and Speed in MPH           <
>     PRES   - Mean Sea Level Pressure (inches of Hg)      <
>     WCI    - Wind Chill Index                            <
>     VSB    - VISIBILITY IN MILES                         <
>     HX     - HEAT INDEX                                  <
>     TC     - TEMPERATURE IN CELSIUS                      <
>     VRB    - VARIABLE WIND DIRECTION                     <
>                                                          <
>>>>>>>>>>>>>>>>>>>>>>>>>>>> KEY <<<<<<<<<<<<<<<<<<<<<<<<<<<



USA.gov is the U.S. government's official web portal to all federal, state and local government web resources and services.